TimeEDT,TemperatureF,Dew PointF,Humidity,Sea Level PressureIn,VisibilityMPH,Wind Direction,Wind SpeedMPH,Gust SpeedMPH,PrecipitationIn,Events,Conditions,WindDirDegrees,DateUTC
12:51 AM,62.1,60.1,93,30.05,6.0,Calm,Calm,-,N/A,,Clear,0,2012-10-06 04:51:00
1:51 AM,62.1,60.1,93,30.04,6.0,WSW,3.5,-,N/A,,Clear,250,2012-10-06 05:51:00
2:51 AM,62.6,59.0,88,30.03,5.0,WSW,3.5,-,N/A,,Clear,250,2012-10-06 06:51:00
3:51 AM,61.0,59.0,93,30.00,5.0,WNW,3.5,-,N/A,,Clear,290,2012-10-06 07:51:00
4:51 AM,60.1,59.0,96,29.98,4.0,Calm,Calm,-,N/A,,Clear,0,2012-10-06 08:51:00
5:51 AM,59.0,57.9,96,29.99,3.0,Calm,Calm,-,N/A,,Clear,0,2012-10-06 09:51:00
6:07 AM,57.2,57.2,100,30.00,2.5,Calm,Calm,-,N/A,,Clear,0,2012-10-06 10:07:00
6:19 AM,57.2,57.2,100,30.01,3.0,Calm,Calm,-,N/A,,Clear,0,2012-10-06 10:19:00
6:28 AM,57.2,57.2,100,30.01,2.5,Calm,Calm,-,N/A,,Clear,0,2012-10-06 10:28:00
6:51 AM,57.9,57.0,97,30.01,3.0,Calm,Calm,-,N/A,,Clear,0,2012-10-06 10:51:00
7:05 AM,57.2,57.2,100,30.02,2.5,Calm,Calm,-,N/A,,Clear,0,2012-10-06 11:05:00
7:15 AM,57.2,57.2,100,30.02,3.0,Calm,Calm,-,N/A,,Clear,0,2012-10-06 11:15:00
7:23 AM,57.2,57.2,100,30.02,2.5,Calm,Calm,-,N/A,,Clear,0,2012-10-06 11:23:00
7:43 AM,57.2,57.2,100,30.02,1.8,Calm,Calm,-,N/A,,Clear,0,2012-10-06 11:43:00
7:51 AM,57.9,57.0,97,30.02,1.2,Calm,Calm,-,N/A,,Clear,0,2012-10-06 11:51:00
8:21 AM,59.0,59.0,100,30.03,1.5,Calm,Calm,-,N/A,,Clear,0,2012-10-06 12:21:00
8:39 AM,60.8,59.0,94,30.03,2.0,Calm,Calm,-,N/A,,Clear,0,2012-10-06 12:39:00
8:51 AM,62.1,60.1,93,30.03,2.5,Calm,Calm,-,N/A,,Clear,0,2012-10-06 12:51:00
9:03 AM,62.6,60.8,94,30.04,3.0,WNW,3.5,-,N/A,,Clear,290,2012-10-06 13:03:00
9:51 AM,69.1,61.0,75,30.02,5.0,Calm,Calm,-,N/A,,Haze,0,2012-10-06 13:51:00
10:51 AM,73.9,62.1,66,30.01,6.0,SW,4.6,-,N/A,,Haze,230,2012-10-06 14:51:00
11:51 AM,78.1,62.1,58,30.00,6.0,West,8.1,-,N/A,,Haze,260,2012-10-06 15:51:00
12:51 PM,80.1,61.0,52,29.98,6.0,Variable,5.8,-,N/A,,Haze,0,2012-10-06 16:51:00
1:51 PM,80.1,60.1,50,29.96,6.0,NNW,5.8,19.6,N/A,,Haze,330,2012-10-06 17:51:00
2:51 PM,82.0,61.0,49,29.93,6.0,WSW,5.8,-,N/A,,Haze,240,2012-10-06 18:51:00
3:51 PM,82.4,62.6,51,29.92,6.0,Variable,4.6,-,N/A,,Haze,0,2012-10-06 19:51:00
4:51 PM,80.1,61.0,52,29.91,6.0,West,6.9,-,N/A,,Haze,270,2012-10-06 20:51:00
5:51 PM,78.8,62.6,57,29.92,6.0,WNW,4.6,-,N/A,,Haze,300,2012-10-06 21:51:00
6:51 PM,75.2,62.6,65,29.94,6.0,Calm,Calm,-,N/A,,Haze,0,2012-10-06 22:51:00
7:51 PM,73.0,62.1,68,29.95,7.0,NW,5.8,-,N/A,,Partly Cloudy,310,2012-10-06 23:51:00
8:51 PM,71.1,63.0,75,29.96,7.0,NW,3.5,-,N/A,,Scattered Clouds,310,2012-10-07 00:51:00
9:51 PM,69.1,63.0,81,29.97,6.0,NW,6.9,-,N/A,,Haze,310,2012-10-07 01:51:00
10:51 PM,66.0,60.1,81,29.98,8.0,WNW,3.5,-,N/A,,Clear,300,2012-10-07 02:51:00
11:51 PM,64.9,60.1,84,29.98,8.0,West,3.5,-,N/A,,Clear,280,2012-10-07 03:51:00